Tracking 30995 objects as of 6-Jul-2025
HD Live streaming from Space Station
objects crossing your sky now

STARLING 3

Track STARLING 3 now!
10-day predictions


NORAD ID: 57389
Int'l Code: 2023-100D
Perigee: 550.6 km
Apogee: 559.6 km
Inclination: 99.5 °
Period: 95.6 minutes
Semi major axis: 6926 km
RCS: Unknown
Launch date: July 18, 2023
Source: United States (US)
Launch site: Rocket Lab Launch Complex (RLLC)
Your satellite tracking list
Your tracking list is empty




NASA's NSSDC Master Catalog

Two Line Element Set (TLE):
1 57389U 23100D   25186.35563920  .00006765  00000-0  46772-3 0  9996
2 57389  99.4813 119.9466 0006445 146.0860 214.0774 15.06158691107744
Source of the keplerian elements: AFSPC